Location: Peralejo
(40.5415°N, 4.1259°W)
Time: 10:13:03
(UTC+00:00)

ATLAS 5 CENTAUR R/B - Pass Details

Date: 18 April 2024
Orbit: 421 x 1169 km, 63.3° (Epoch: 19 May)

Event Time Altitude Azimuth Distance (km) Brightness Sun altitude
Rises 20:43:19 0° 260° (W) 2,374 5.3 -18.7°
Reaches altitude 10° 20:46:08 10° 288° (WNW) 1,551 4.7 -19.2°
Maximum altitude 20:47:58 14° 321° (NW) 1,375 4.4 -19.5°
Drops below altitude 10° 20:49:55 10° 354° (N) 1,654 4.3 -19.8°
Sets 20:53:07 0° 21° (NNE) 2,663 5.0 -20.2°
